SSB

operational
NORAD ID: 13845 Int'l Des: 1983-008 Owner: NRO/NRL Country: US
LEO

About SSB

Description loading...

Live Position

Loading 3D Globe...

Upcoming Passes

Altitude History

Altitude vs Time

uPlot chart will show altitude changes over time

Two-Line Element Set

1 13845U 83008F 26102.98717508 .00002096 00000-0 30144-3 0 9998
2 13845 63.3094 197.3540 0713392 134.5963 231.5619 13.78212848335915
Epoch: Apr 12, 2026 • Age: 9 hours

Current Status

Altitude 1067.3 km
Velocity 7.27 km/s
Sub-Earth Point 26.74°N, 118.93°W
Launch Date Feb 9, 1983
Age 43.1 years
Type other

Technical Details

Classification Payload
Mass 200.00 kg
Dry Mass 200.00 kg
Total Mass 200.00 kg
Length 0.90 m
Diameter 0.40 m
Span 10.00 m
Shape Box + Ant
Manufacturer MM
Bus Type NOSS SSU
Phase Status In Orbit
Owner/State NRO/NRL/US

Large Constellations

Loading constellations...